Terug naar catalogus

STARLINK-35249

ActiefCommunicatieVLEO
NORAD 65901·PAYLOAD·🇺🇸 United States

Gelanceerd Oct 7, 2025 vanaf Cape Canaveral Space Force Station

Loading…

Volgende Passages (komende 24 uur)

TLE

VersSource: CelesTrak SupGP

Epoch: Sep 14, 2026, 20:57 UTC

1 65901C 25224V   26257.87340278  .00032012  00000+0  94555-3 0  2572
2 65901  53.1588 212.0945 0001523  93.7755   3.0577 15.34382375    17

Volg STARLINK-35249 in realtime met AllMySat

Download on the App Store